Dewpoint
-13 -13 -15 -16 -16 -16 -16 -16 -15 -13 -15 -17 -18 -19 -20 -20 -19 -17 -16 -16 -17 -16 -7 -7 -6 -6 -6 -6 -5 -4 -4 -4 -4 -4 -3 -3 -3 -2
-15 -15 -15 -16 -15 -15 -16 -16 -16 -15 -12 -16 -19 -19 -19 -18 -16 -15 -16 -16 -15 -14 -9 -7 -7 -6 -6 -6 -6 -5 -5 -4 -4 -4 -4 -3 -3 -3
-14 -15 -15 -15 -15 -16 -17 -17 -17 -15 -13 -15 -15 -15 -14 -15 -15 -15 -17 -16 -15 -16 -10 -7 -7 -6 -6 -6 -6 -5 -5 -5 -5 -4 -4 -4 -3 -3
-15 -15 -15 -15 -17 -18 -17 -17 -17 -17 -14 -12 -12 -11 -10 -11 -11 -13 -14 -16 -15 -14 -13 -8 -8 -7 -7 -7 -6 -6 -6 -6 -5 -5 -5 -5 -4 -4
-14 -15 -16 -19 -20 -20 -19 -18 -16 -14 -11 -10 -9 -9 -9 -10 -11 -12 -12 -15 -14 -13 -12 -12 -12 -9 -8 -7 -7 -7 -7 -7 -7 -6 -6 -6 -5 -5
-15 -18 -21 -22 -22 -21 -19 -16 -12 -10 -10 -9 -8 -8 -9 -10 -11 -10 -12 -13 -13 -12 -12 -11 -10 -10 -10 -11 -12 -11 -11 -9 -8 -7 -6 -6 -6 -5
-20 -22 -24 -25 -24 -20 -13 -11 -9 -9 -8 -8 -8 -9 -9 -9 -10 -12 -11 -11 -10 -11 -11 -10 -11 -11 -12 -12 -12 -12 -12 -8 -7 -7 -6 -6 -6 -6
-23 -26 -28 -28 -24 -20 -17 -15 -9 -8 -7 -8 -8 -8 -9 -10 -12 -11 -9 -9 -9 -11 -10 -11 -11 -11 -12 -12 -11 -12 -10 -8 -8 -8 -7 -7 -6 -6
-27 -29 -30 -25 -21 -21 -18 -12 -9 -9 -8 -8 -8 -9 -10 -12 -9 -9 -9 -9 -9 -11 -10 -10 -11 -11 -12 -12 -12 -12 -12 -11 -8 -7 -7 -7 -6 -6
-28 -27 -23 -23 -23 -18 -10 -8 -8 -9 -9 -9 -10 -10 -9 -9 -9 -9 -9 -10 -10 -11 -11 -10 -11 -11 -11 -11 -12 -12 -12 -12 -9 -8 -8 -7 -7 -7
-26 -24 -24 -22 -20 -9 -8 -8 -8 -9 -11 -11 -11 -9 -9 -10 -10 -10 -10 -10 -10 -10 -11 -11 -10 -10 -11 -11 -12 -12 -12 -12 -11 -11 -10 -8 -8 -7
-27 -25 -23 -20 -15 -8 -8 -9 -9 -11 -10 -9 -10 -11 -12 -11 -11 -10 -10 -10 -10 -11 -11 -10 -11 -11 -10 -11 -11 -11 -12 -12 -11 -11 -11 -10 -8 -7
-24 -23 -21 -15 -9 -9 -9 -11 -12 -10 -9 -11 -12 -11 -11 -11 -10 -10 -10 -10 -10 -10 -10 -10 -11 -11 -11 -10 -11 -11 -11 -11 -11 -11 -11 -10 -8 -8
-21 -18 -14 -10 -10 -16 -19 -18 -11 -11 -12 -11 -11 -11 -10 -10 -10 -10 -9 -9 -9 -9 -10 -9 -10 -10 -10 -11 -11 -11 -11 -11 -11 -11 -10 -9 -9 -9
-15 -11 -12 -15 -18 -19 -18 -16 -12 -11 -11 -11 -10 -10 -10 -10 -10 -9 -10 -10 -10 -10 -10 -10 -10 -10 -10 -10 -10 -10 -10 -11 -11 -11 -11 -10 -9 -9
-13 -17 -19 -19 -19 -18 -16 -12 -11 -11 -10 -10 -9 -9 -9 -9 -9 -10 -10 -10 -10 -10 -11 -10 -10 -9 -10 -10 -9 -10 -11 -10 -11 -11 -11 -10 -9 -8
-16 -20 -20 -20 -19 -17 -12 -11 -11 -10 -10 -9 -9 -9 -9 -9 -10 -10 -10 -10 -10 -10 -10 -10 -10 -9 -9 -10 -10 -11 -11 -10 -10 -10 -9 -8 -8 -8
-19 -18 -19 -18 -16 -13 -11 -11 -10 -10 -9 -9 -9 -9 -9 -9 -9 -9 -9 -9 -9 -9 -10 -10 -9 -10 -10 -11 -10 -11 -10 -10 -10 -9 -8 -8 -8 -8
-18 -17 -17 -15 -13 -11 -10 -10 -10 -9 -9 -9 -9 -8 -9 -9 -9 -9 -9 -9 -9 -9 -10 -10 -9 -9 -10 -10 -10 -9 -9 -9 -8 -8 -8 -7 -8 -8
-17 -16 -16 -14 -11 -10 -10 -9 -9 -9 -9 -8 -8 -8 -8 -8 -8 -9 -9 -9 -9 -10 -9 -9 -9 -9 -9 -9 -9 -9 -9 -8 -8 -7 -8 -8 -8 -8
-17 -16 -14 -11 -10 -10 -9 -9 -9 -9 -8 -8 -8 -8 -8 -8 -8 -8 -9 -9 -9 -9 -9 -9 -9 -8 -8 -8 -8 -8 -8 -8 -7 -7 -7 -7 -7 -8
-15 -14 -11 -10 -10 -9 -9 -9 -9 -9 -8 -8 -7 -7 -8 -8 -8 -9 -9 -9 -9 -9 -9 -9 -8 -8 -8 -8 -8 -8 -8 -7 -7 -6 -6 -6 -6 -7
-13 -11 -10 -10 -9 -9 -9 -9 -9 -9 -8 -7 -7 -8 -8 -8 -8 -9 -9 -9 -9 -9 -8 -8 -8 -8 -8 -8 -8 -8 -7 -7 -7 -7 -8 -7 -6 -6
Wind_Speed
13 14 12 12 14 15 16 18 19 17 29 28 28 33 35 37 35 34 33 31 29 29 27 28 28 27 27 28 28 28 29 32 31 31 32 33 34 33
12 12 13 13 14 15 17 18 20 22 24 32 34 36 36 35 34 33 33 28 28 28 28 26 27 26 26 28 29 30 31 31 32 32 32 33 34 34
13 14 13 13 15 17 18 20 22 24 30 35 34 33 35 35 35 35 30 29 29 28 27 27 26 26 28 28 30 29 30 31 31 32 32 32 33 34
12 13 14 15 16 18 20 22 23 24 29 34 34 35 35 35 37 36 33 31 32 28 29 27 28 29 29 27 28 29 31 31 32 32 33 34 33 32
13 15 15 17 18 20 22 24 24 25 27 31 36 34 36 37 40 37 39 38 33 33 31 31 29 27 25 27 30 30 30 30 32 32 32 31 31 31
14 15 16 18 20 21 23 22 23 25 28 30 33 35 37 39 39 41 42 37 36 33 35 32 26 29 33 33 31 30 29 29 29 30 30 31 32 32
13 15 17 19 20 20 20 21 22 26 27 29 33 37 39 41 43 41 39 37 38 38 37 29 39 41 35 34 32 29 27 27 29 31 33 32 31 32
14 16 17 19 20 20 21 22 20 22 27 30 33 37 41 41 39 36 36 38 39 37 35 45 39 41 37 34 32 31 30 31 30 30 31 31 30 28
16 17 18 19 21 23 21 17 19 22 23 28 35 37 38 35 32 34 33 35 39 40 42 46 38 39 35 34 32 31 27 23 26 27 27 26 27 29
15 17 19 21 22 21 21 21 23 26 28 31 33 34 31 31 32 33 37 37 39 37 35 42 39 39 40 37 34 27 23 26 23 25 28 29 29 28
16 18 22 23 23 20 21 25 30 32 31 28 26 26 28 30 30 30 31 31 38 38 34 34 38 43 44 40 30 30 35 31 31 28 25 25 28 28
20 22 23 23 21 18 23 27 30 30 24 29 30 31 28 27 26 24 27 31 34 36 30 34 39 35 31 34 27 40 38 34 32 29 25 23 22 24
24 24 24 21 18 22 21 23 23 23 27 29 27 28 27 26 25 26 28 29 32 35 34 30 38 37 32 42 43 41 40 37 35 31 24 20 18 20
23 23 22 20 22 23 23 22 20 21 23 25 27 28 28 28 28 27 26 27 28 31 32 31 35 34 36 41 44 43 39 37 36 32 25 17 23 25
21 20 23 26 25 24 20 19 18 19 21 24 26 28 29 28 29 31 30 29 30 28 28 28 30 30 30 36 41 42 43 41 33 26 29 30 31 30
21 24 24 24 21 19 18 16 16 19 22 24 28 28 26 30 32 31 33 33 36 35 25 25 26 26 31 34 35 41 39 38 37 33 33 36 33 31
22 23 22 20 18 18 17 17 18 20 23 26 27 27 31 33 32 30 31 33 33 36 34 28 27 29 30 31 35 36 36 36 37 38 38 40 38 35
22 22 20 18 19 19 19 21 20 22 25 26 25 29 31 32 34 34 32 31 34 34 35 34 35 36 35 35 29 31 37 40 41 41 39 39 42 35
20 18 18 18 19 18 19 21 23 24 25 23 27 29 30 32 34 35 34 33 34 35 35 37 36 35 36 37 39 27 31 39 36 35 33 34 38 39
18 17 18 18 18 18 20 22 24 25 24 24 28 29 31 34 36 36 35 35 35 36 39 37 35 33 34 39 46 43 33 35 35 35 36 34 36 36
17 17 17 17 17 19 21 23 24 26 24 26 28 31 33 35 35 35 36 33 34 35 38 38 35 32 32 34 37 42 39 31 31 33 34 36 35 34
17 17 16 16 18 20 22 24 25 25 22 26 31 33 35 35 35 35 35 34 35 36 36 37 36 35 34 34 37 39 38 36 28 25 23 21 24 25
17 17 17 17 19 21 22 25 26 24 23 27 32 35 35 35 33 33 33 33 34 36 35 37 37 35 34 33 34 36 36 34 33 34 28 19 20 21
Wind_Direction
255 264 270 283 284 288 292 295 296 298 303 304 307 310 310 311 314 314 313 311 307 304 301 299 299 295 292 293 290 289 288 285 285 284 281 279 277 276
260 271 279 284 288 291 295 296 295 294 288 296 303 306 308 310 312 312 313 309 306 305 302 299 297 296 293 291 289 288 287 285 284 283 283 281 278 276
264 273 281 288 290 293 295 295 295 296 293 298 303 308 309 311 313 315 314 312 310 308 307 301 299 297 294 292 291 289 287 285 285 283 282 282 278 276
270 282 286 290 293 294 296 297 298 298 299 303 307 313 315 317 317 318 320 317 316 311 312 305 302 300 296 294 294 291 290 286 284 283 282 280 277 275
282 280 288 293 295 297 299 299 301 302 302 303 307 311 313 316 319 320 318 317 316 318 315 313 312 302 300 297 294 292 288 285 283 283 282 279 278 275
280 286 295 298 298 298 299 301 303 302 303 303 305 307 311 316 317 316 316 316 316 317 315 315 313 310 307 306 305 301 295 288 283 281 280 279 277 275
287 293 298 297 297 296 297 301 302 302 304 304 304 307 310 313 314 314 314 318 318 316 318 317 315 312 312 312 308 306 300 293 288 283 282 281 276 274
292 297 299 300 299 298 298 296 297 299 300 300 302 303 305 308 310 313 315 315 312 317 310 309 313 311 313 313 309 312 304 292 287 284 281 279 279 276
303 306 307 307 306 306 305 304 302 297 292 295 297 301 304 308 311 310 312 307 300 305 308 306 313 308 315 311 310 311 307 300 290 286 284 282 276 275
314 314 312 312 313 315 318 311 304 299 299 301 304 306 307 310 308 303 299 296 297 301 309 303 316 313 316 312 313 311 310 312 297 290 287 282 280 277
314 316 317 319 319 320 317 309 306 304 306 305 300 299 300 301 301 299 299 304 304 309 313 309 315 314 313 312 317 321 319 314 308 301 288 282 281 279
320 321 321 318 318 322 309 306 303 309 317 309 306 306 308 307 307 305 308 307 308 310 313 309 310 315 313 306 310 314 312 314 313 308 297 287 279 275
321 321 321 322 324 313 312 304 309 314 299 303 310 313 315 315 314 312 309 308 307 302 312 308 303 306 293 300 306 310 311 314 313 308 298 288 277 273
322 323 326 327 316 319 316 313 311 308 313 315 317 319 322 321 317 314 312 308 305 302 308 308 301 304 303 302 300 311 312 312 311 308 304 291 291 286
326 325 317 321 319 318 319 318 316 316 319 321 323 324 325 324 321 321 318 316 309 306 307 306 306 307 301 297 299 305 308 310 308 304 306 304 300 293
327 325 323 320 320 320 321 324 325 327 329 328 326 326 327 329 329 329 324 325 321 322 325 320 319 313 307 304 304 301 304 291 307 307 308 304 299 296
321 325 326 326 329 329 332 335 334 332 333 332 331 330 332 332 333 335 332 329 324 325 326 328 326 320 313 311 304 304 305 304 309 309 308 304 299 295
326 327 330 332 335 336 337 336 338 336 336 334 334 336 335 336 336 337 335 331 327 328 327 331 331 328 325 318 309 308 310 306 310 308 302 292 296 298
326 331 333 335 336 337 336 336 337 338 335 336 338 339 340 338 336 337 337 333 330 329 330 332 329 325 312 303 321 308 291 305 310 305 304 300 294 301
330 334 335 335 337 336 336 337 337 337 338 339 339 340 340 337 338 339 338 335 333 331 329 329 330 330 317 308 310 319 324 316 313 310 310 308 301 302
334 336 337 337 337 336 336 336 335 338 339 338 341 342 340 339 338 339 338 338 335 333 330 332 334 332 326 326 310 317 326 329 321 312 309 300 300 303
335 336 339 339 337 336 336 335 336 338 337 341 344 341 341 342 340 338 337 337 338 336 331 332 335 337 335 328 318 323 330 334 333 326 323 314 297 278
336 339 342 341 337 337 335 336 336 338 339 342 344 342 345 344 341 337 339 340 337 333 333 333 337 340 336 336 330 327 334 337 339 337 335 341 332 314
Height
1502 1500 1499 1496 1497 1496 1495 1493 1492 1488 1484 1482 1480 1477 1474 1470 1466 1462 1457 1453 1449 1446 1443 1441 1439 1436 1434 1431 1429 1426 1424 1422 1419 1417 1415 1414 1412 1411
1498 1497 1495 1494 1494 1493 1491 1489 1488 1485 1481 1478 1475 1471 1468 1463 1460 1455 1450 1446 1443 1439 1435 1434 1431 1428 1426 1423 1421 1418 1415 1412 1410 1408 1406 1404 1402 1401
1495 1495 1492 1490 1490 1489 1487 1485 1483 1481 1475 1470 1468 1466 1461 1457 1452 1447 1443 1439 1435 1432 1428 1425 1422 1420 1417 1414 1411 1408 1406 1403 1401 1398 1396 1394 1393 1392
1490 1490 1488 1485 1485 1484 1481 1479 1477 1475 1470 1463 1461 1458 1454 1450 1444 1439 1435 1432 1428 1424 1420 1417 1414 1411 1408 1405 1402 1399 1395 1394 1390 1388 1386 1384 1382 1381
1486 1487 1484 1481 1480 1478 1476 1473 1471 1468 1465 1460 1454 1452 1447 1444 1436 1432 1428 1423 1420 1416 1413 1409 1405 1402 1400 1397 1394 1389 1386 1382 1380 1377 1375 1373 1371 1371
1484 1483 1479 1476 1474 1472 1470 1468 1465 1462 1459 1455 1450 1445 1441 1436 1432 1425 1418 1417 1411 1409 1404 1401 1397 1395 1391 1387 1382 1378 1374 1370 1368 1366 1365 1363 1362 1361
1479 1477 1474 1471 1469 1467 1465 1462 1459 1456 1454 1450 1444 1439 1434 1429 1425 1420 1413 1408 1405 1401 1394 1392 1387 1383 1379 1376 1371 1368 1364 1360 1359 1357 1354 1352 1351 1350
1475 1472 1469 1467 1465 1462 1459 1457 1455 1452 1449 1445 1440 1434 1429 1424 1419 1414 1408 1403 1394 1393 1388 1383 1380 1373 1369 1366 1361 1358 1354 1351 1348 1346 1344 1342 1341 1340
1469 1466 1464 1462 1460 1456 1453 1451 1449 1447 1445 1441 1434 1429 1422 1419 1414 1408 1404 1398 1393 1387 1382 1371 1372 1363 1361 1356 1353 1350 1345 1341 1339 1337 1334 1333 1331 1329
1465 1462 1460 1457 1454 1449 1446 1445 1443 1440 1438 1433 1428 1422 1418 1413 1409 1404 1398 1391 1386 1381 1378 1363 1362 1354 1350 1346 1344 1341 1338 1334 1330 1328 1325 1323 1320 1318
1462 1459 1455 1451 1447 1444 1442 1438 1434 1431 1428 1425 1421 1417 1413 1408 1404 1397 1391 1385 1376 1372 1371 1361 1353 1345 1339 1333 1333 1330 1327 1325 1322 1318 1314 1312 1310 1308
1458 1454 1450 1446 1442 1441 1438 1433 1427 1424 1421 1416 1413 1409 1405 1400 1396 1391 1386 1379 1373 1363 1362 1357 1348 1345 1328 1322 1323 1321 1317 1315 1311 1307 1304 1302 1300 1298
1451 1448 1444 1441 1438 1436 1432 1427 1423 1420 1415 1410 1405 1401 1397 1392 1388 1384 1380 1374 1367 1360 1357 1352 1341 1338 1334 1319 1311 1311 1308 1303 1299 1296 1293 1292 1291 1289
1446 1442 1439 1436 1433 1429 1425 1421 1418 1413 1408 1404 1399 1395 1390 1385 1381 1377 1372 1367 1361 1354 1349 1346 1336 1332 1324 1315 1306 1302 1298 1294 1290 1285 1283 1282 1281 1279
1441 1438 1434 1431 1427 1424 1420 1416 1413 1409 1404 1399 1395 1390 1384 1379 1374 1368 1363 1358 1351 1348 1343 1337 1330 1324 1319 1311 1302 1295 1289 1283 1281 1277 1275 1272 1269 1267
1437 1433 1430 1426 1423 1419 1416 1413 1409 1405 1400 1395 1390 1384 1379 1373 1367 1362 1354 1348 1340 1335 1334 1329 1323 1317 1310 1304 1298 1287 1283 1278 1272 1269 1266 1261 1258 1255
1433 1430 1426 1422 1418 1415 1411 1408 1405 1401 1396 1391 1385 1379 1374 1367 1361 1356 1349 1342 1336 1328 1322 1320 1315 1309 1303 1297 1289 1280 1273 1268 1263 1258 1255 1249 1246 1244
1429 1425 1422 1418 1414 1411 1407 1404 1401 1397 1392 1386 1381 1376 1369 1363 1356 1350 1345 1338 1331 1324 1317 1311 1305 1297 1291 1285 1282 1271 1264 1259 1254 1250 1246 1240 1232 1232
1426 1422 1418 1415 1411 1408 1405 1401 1396 1393 1388 1383 1378 1373 1366 1359 1353 1345 1339 1332 1325 1318 1311 1305 1298 1293 1284 1274 1269 1269 1261 1252 1246 1240 1236 1230 1223 1217
1422 1419 1415 1412 1409 1406 1402 1398 1394 1389 1384 1380 1375 1369 1363 1356 1349 1342 1334 1327 1320 1312 1305 1300 1294 1288 1281 1271 1260 1251 1252 1244 1237 1229 1223 1218 1212 1207
1420 1416 1413 1409 1407 1403 1399 1395 1391 1386 1381 1377 1372 1365 1359 1352 1344 1338 1330 1324 1317 1310 1300 1293 1288 1283 1275 1266 1256 1246 1240 1237 1230 1222 1215 1210 1202 1195
1417 1413 1410 1407 1404 1400 1396 1392 1387 1383 1378 1373 1368 1362 1355 1348 1341 1333 1327 1319 1312 1305 1297 1290 1282 1275 1268 1262 1252 1242 1233 1225 1221 1215 1209 1203 1196 1188
1414 1411 1408 1405 1402 1397 1393 1388 1384 1379 1375 1370 1364 1358 1351 1344 1338 1331 1323 1316 1309 1302 1295 1285 1278 1271 1264 1256 1248 1238 1229 1220 1212 1203 1198 1196 1190 1183